[[{"header":{"parameterUnit":"m.s-1","parameterCategory":2,"la1":30.2991,"la2":30.254,"lo1":-89.0895,"lo2":-89.0444,"dy":0.0017,"dx":0.0017,"nx":28,"ny":28,"refTime":"2025-08-05T21:00:00:Z","depth":"0","parameterNumber":2,"parameterNumberName":"U-component_of_CURRENTS"},"data":[0,0,0,0,0,0,0,0,0,0,0,0,0,0,0,0,0,0,0,0,0,0,0,0,0,0,0,0,0,0,0,0,0,0,0,0,0,0,0,0,0,0,0,0,0,0,0,0,0,0,0,0,0,0,0,0,0,0,0.3311,0.3311,0,0.328,0.3279,0.3279,0.324,0.324,0.324,0.3239,0.3206,0.3205,0.3205,0,0,0,0,0,0,0,0,0,0,0,0,0,0.335,0.335,0.3311,0.3311,0.3311,0.328,0.3279,0.3279,0.324,0.324,0.3239,0.3239,0.3206,0.3206,0.3205,0,0,0,0,0,0,0,0,0,0,0,0,0,0.3325,0.3349,0.3311,0.329,0.3288,0.328,0.3279,0.3279,0.324,0.324,0.3239,0.3239,0.3206,0.3206,0.3205,0.3209,0,0,0.3202,0.3202,0,0,0,0,0,0,0,0,0.3326,0.3323,0.3293,0.3292,0.3289,0.3266,0.3281,0.3256,0.324,0.3255,0.3239,0.3239,0.3228,0.3226,0.3217,0.3208,0.3206,0.3202,0.3202,0.3201,0.3201,0,0,0,0,0,0,0,0.3328,0.3324,0.3295,0.3293,0.3291,0.3288,0.3283,0.3276,0.3242,0.3254,0.3252,0.3254,0.3227,0.3217,0.3216,0.3206,0.3202,0.3201,0.3201,0.32,0.3244,0.3245,0,0,0,0,0,0,0.3338,0.3326,0.3297,0.3295,0.3311,0.3287,0.3282,0.3272,0.3242,0.3239,0.3254,0.3252,0.3219,0.3217,0.3214,0.3249,0.3201,0.32,0.32,0.3242,0.3244,0.3246,0,0,0,0,0,0,0.3339,0.3335,0.3298,0.3313,0.3308,0.3287,0.3276,0.3271,0.3267,0.3243,0.3238,0.3255,0.3219,0.3215,0.322,0.3246,0.32,0.3199,0.324,0.3243,0.3245,0.3299,0,0,0,0,0,0,0.334,0.3335,0.3333,0.3313,0.3308,0.33,0.3277,0.3271,0.327,0.3267,0.3243,0.3239,0.3218,0.3222,0.3219,0.3244,0.3199,0.3238,0.3241,0.3244,0.3295,0.3303,0.331,0,0,0,0,0,0.3341,0.3337,0.3332,0.3329,0.3304,0.3301,0.3298,0.328,0.3271,0.3273,0.3261,0.324,0.324,0.3222,0.3219,0.3244,0.3236,0.324,0.3244,0.3292,0.3301,0.331,0,0,0,0,0,0,0.3351,0.3333,0.3327,0.3317,0.3315,0.3296,0.3295,0.3288,0.3279,0.3277,0.3253,0.3249,0.3267,0.3251,0.3232,0.3269,0.3239,0.3242,0.3276,0.3285,0.3292,0.3302,0.3198,0,0,0,0,0,0.3354,0.3346,0.3336,0.333,0.3329,0.3316,0.3314,0.3306,0.3297,0.3292,0.3277,0.3272,0.328,0.3278,0.3278,0.3291,0.3314,0.3309,0.3317,0.3323,0.3331,0.3412,0.3428,0.3258,0.3258,0.3258,0,0,0.3357,0.3348,0.3342,0.3333,0.3326,0.333,0.3312,0.3314,0.3321,0.3291,0.3295,0.3296,0.3292,0.331,0.3317,0.3298,0.3383,0.3328,0.3333,0.3338,0.3418,0.3435,0.3449,0.3261,0.326,0.326,0,0,0.336,0.3351,0.3345,0.3348,0.3348,0.3345,0.3351,0.3342,0.334,0.335,0.334,0.3361,0.3353,0.3364,0.3368,0.3418,0.3424,0.3419,0.3457,0.3535,0.355,0.3564,0.3611,0.3628,0.3418,0.3418,0.3418,0,0.3368,0.3352,0.3347,0.3349,0.3353,0.3356,0.336,0.3366,0.3362,0.3377,0.3359,0.3396,0.3384,0.3431,0.3443,0.3436,0.3473,0.342,0.3546,0.356,0.3572,0.3618,0.3636,0.3421,0.342,0.342,0.342,0,0.3363,0.336,0.336,0.3362,0.3371,0.3376,0.3389,0.3406,0.341,0.3422,0.3468,0.3466,0.3494,0.3496,0.3478,0.3564,0.3558,0.355,0.3523,0.3593,0.3636,0.3654,0.3425,0.3424,0.3423,0.3422,0,0,0.3352,0.3355,0.3355,0.3357,0.3377,0.338,0.3416,0.3447,0.3485,0.3497,0.3556,0.3567,0.3584,0.3591,0.3588,0.3641,0.3751,0.3632,0.3635,0.3678,0.3917,0.3829,0.384,0.3774,0.3777,0.378,0.391,0,0.3348,0.3346,0.3356,0.3368,0.3366,0.3398,0.3434,0.3473,0.3511,0.3576,0.361,0.3662,0.3617,0.3647,0.3696,0.3752,0.3802,0.3716,0.3844,0.3847,0.376,0.3859,0.3677,0.377,0.3927,0.393,0.3932,0,0.3328,0.3332,0.3332,0.3365,0.337,0.3388,0.3455,0.3492,0.3595,0.3636,0.3708,0.3748,0.3836,0.3791,0.3918,0.387,0.3896,0.3923,0.393,0.3841,0.3793,0.3728,0.3797,0.3687,0.396,0.3958,0.3956,0,0.329,0.3312,0.3309,0.3316,0.336,0.338,0.3417,0.3505,0.3566,0.3692,0.3778,0.3864,0.3942,0.4002,0.4044,0.4006,0.4185,0.4143,0.4082,0.4076,0.394,0.3915,0.3916,0.4235,0.4235,0.4235,0.4234,0,0.3261,0.3258,0.329,0.3284,0.3312,0.3355,0.342,0.3479,0.361,0.3715,0.3809,0.3913,0.4006,0.4108,0.4117,0.4163,0.4249,0.4114,0.4118,0.3951,0.3927,0.3838,0.378,0.424,0.4239,0.4238,0.4237,0,0.3203,0.322,0.3223,0.3268,0.3285,0.3304,0.3414,0.3478,0.361,0.3765,0.3824,0.3996,0.4125,0.4195,0.4309,0.4258,0.4176,0.4287,0.4066,0.404,0.3838,0.379,0.3683,0.3579,0.425,0.4249,0.4248,0,0.3162,0.3158,0.3199,0.3211,0.3225,0.3276,0.3327,0.3454,0.3544,0.3803,0.3882,0.4069,0.4168,0.4298,0.4252,0.4269,0.4147,0.4096,0.3974,0.3824,0.3776,0.3634,0.3545,0.3823,0.3818,0.3815,0.3812,0,0.3105,0.3124,0.3136,0.3165,0.3199,0.325,0.3336,0.3408,0.3596,0.3733,0.3915,0.4021,0.4152,0.4083,0.41,0.4074,0.3875,0.4019,0.394,0.3507,0.328,0.3182,0.3729,0.378,0.3783,0.3785,0.3787,0.3788,0.3072,0.3069,0.3099,0.3115,0.3159,0.3208,0.3223,0.3343,0.3464,0.3621,0.3801,0.3865,0.3899,0.3883,0.3845,0.3644,0.365,0.3503,0.3481,0.3371,0.3182,0.364,0.3642,0.3644,0.3646,0.3648,0.365,0,0.3028,0.3033,0.3051,0.3068,0.3079,0.3129,0.3215,0.3214,0.3289,0.3428,0.3532,0.3521,0.3446,0.3441,0.3291,0.3129,0.2989,0.3034,0.2803,0.2762,0.3247,0.3138,0.2936,0.2936,0.2936,0.2936,0.2936,0.2936,0.3011,0.2996,0.2995,0.2977,0.2987,0.297,0.2985,0.299,0.304,0.3023,0.299,0.3024,0.3109,0.3029,0.2831,0.2749,0.2538,0.2392,0.2429,0.2776,0.2817,0.2857,0.2742,0.246,0.246,0.1816,0.1811,0.1808]},{"header":{"parameterUnit":"m.s-1","parameterCategory":2,"la1":30.2991,"la2":30.254,"lo1":-89.0895,"lo2":-89.0444,"dy":0.0017,"dx":0.0017,"nx":28,"ny":28,"refTime":"2025-08-05T21:00:00:Z","depth":"0","parameterNumber":3,"parameterNumberName":"V-component_of_CURRENTS"},"data":[0,0,0,0,0,0,0,0,0,0,0,0,0,0,0,0,0,0,0,0,0,0,0,0,0,0,0,0,0,0,0,0,0,0,0,0,0,0,0,0,0,0,0,0,0,0,0,0,0,0,0,0,0,0,0,0,0,0,0.0362,0.0362,0,0.0324,0.0324,0.0323,0.0297,0.0296,0.0296,0.0296,0.0246,0.0244,0.0243,0,0,0,0,0,0,0,0,0,0,0,0,0,0.0355,0.0356,0.0362,0.0362,0.0361,0.0324,0.0324,0.0323,0.0297,0.0296,0.0296,0.0296,0.0246,0.0245,0.0243,0,0,0,0,0,0,0,0,0,0,0,0,0,0.0341,0.0356,0.0362,0.0345,0.0343,0.0324,0.0324,0.0323,0.0297,0.0296,0.0296,0.0296,0.0247,0.0245,0.0243,0.0234,0,0,0.0237,0.0236,0,0,0,0,0,0,0,0,0.0342,0.0341,0.0348,0.0346,0.0344,0.0316,0.0303,0.0293,0.0297,0.0313,0.0296,0.0296,0.0269,0.0265,0.0257,0.0231,0.0229,0.0237,0.0236,0.0235,0.0234,0,0,0,0,0,0,0,0.0343,0.0342,0.0346,0.0347,0.0345,0.0319,0.0318,0.03,0.0291,0.0311,0.031,0.0308,0.0268,0.0259,0.0255,0.0228,0.0237,0.0235,0.0234,0.0233,0.0203,0.0203,0,0,0,0,0,0,0.0353,0.0343,0.0347,0.0345,0.0344,0.032,0.0318,0.0324,0.0291,0.0286,0.0308,0.0307,0.0262,0.0257,0.0253,0.0262,0.0235,0.0233,0.0232,0.0202,0.0203,0.0203,0,0,0,0,0,0,0.0353,0.0354,0.0348,0.0343,0.0341,0.0321,0.0328,0.0323,0.0318,0.0289,0.0284,0.0307,0.0262,0.0256,0.0246,0.0259,0.0232,0.023,0.0202,0.0203,0.0203,0.0266,0,0,0,0,0,0,0.0354,0.0355,0.0361,0.0345,0.0342,0.0347,0.0328,0.0323,0.0317,0.0315,0.0287,0.0281,0.0261,0.0249,0.0244,0.0256,0.0229,0.0202,0.0202,0.0203,0.0263,0.0268,0.0273,0,0,0,0,0,0.0354,0.0368,0.0362,0.0362,0.0352,0.0348,0.0344,0.0328,0.0318,0.0321,0.0301,0.0283,0.0249,0.0248,0.0242,0.0254,0.0201,0.0202,0.0203,0.0261,0.0267,0.0273,0,0,0,0,0,0,0.0363,0.0366,0.0359,0.0372,0.0364,0.0344,0.0344,0.0333,0.0319,0.0316,0.0287,0.0281,0.0275,0.0255,0.0254,0.0246,0.0222,0.0222,0.0268,0.0274,0.0279,0.0299,0.0227,0,0,0,0,0,0.037,0.0383,0.0375,0.0383,0.0383,0.0363,0.0358,0.0349,0.0335,0.0328,0.0309,0.0288,0.0272,0.0267,0.0247,0.0245,0.023,0.0248,0.0252,0.0257,0.0268,0.026,0.0266,0.0206,0.0206,0.0206,0,0,0.0374,0.0378,0.0384,0.0387,0.0377,0.0389,0.036,0.0359,0.0368,0.0325,0.0329,0.0301,0.0274,0.0271,0.0267,0.0258,0.0264,0.0258,0.0262,0.0271,0.0262,0.0268,0.0273,0.0206,0.0206,0.0206,0,0,0.0395,0.0394,0.0414,0.0416,0.0412,0.0405,0.0408,0.0394,0.0387,0.0384,0.0357,0.0341,0.0317,0.0304,0.0293,0.0312,0.0286,0.0302,0.0349,0.0341,0.0346,0.035,0.0335,0.0338,0.031,0.031,0.031,0,0.0399,0.0428,0.0417,0.0437,0.0446,0.0418,0.0442,0.0432,0.0416,0.0419,0.0394,0.0367,0.0334,0.0343,0.0344,0.0324,0.0314,0.0331,0.0349,0.0353,0.0356,0.0339,0.0341,0.0313,0.0313,0.0312,0.0312,0,0.044,0.046,0.0471,0.0494,0.05,0.0514,0.0506,0.0505,0.049,0.0482,0.0479,0.0435,0.0421,0.0405,0.0378,0.0391,0.0373,0.0353,0.0339,0.0366,0.0346,0.0347,0.0317,0.0316,0.0315,0.0315,0,0,0.0459,0.0495,0.0499,0.0526,0.0535,0.0549,0.0562,0.0576,0.0601,0.0565,0.0597,0.0545,0.0518,0.0504,0.0467,0.0457,0.0457,0.042,0.0418,0.0413,0.044,0.0415,0.0413,0.0445,0.0445,0.0446,0.0414,0,0.0495,0.0553,0.0558,0.0612,0.0643,0.0632,0.0657,0.0663,0.0656,0.0677,0.0631,0.0643,0.0559,0.0563,0.0531,0.0487,0.0464,0.0467,0.0407,0.0405,0.0387,0.0415,0.0437,0.0411,0.0415,0.0415,0.0415,0,0.0537,0.0575,0.0635,0.0691,0.0704,0.0729,0.0772,0.0794,0.0806,0.0804,0.0791,0.076,0.0737,0.0666,0.0586,0.0595,0.0518,0.0472,0.0469,0.0428,0.0383,0.0383,0.0412,0.0299,0.0417,0.0417,0.0416,0,0.0571,0.063,0.0686,0.0703,0.0756,0.078,0.081,0.0833,0.0881,0.0898,0.0942,0.088,0.0882,0.0779,0.0654,0.0629,0.0574,0.0526,0.0427,0.0423,0.0421,0.0417,0.0343,0.0466,0.0466,0.0466,0.0466,0,0.0617,0.0661,0.0708,0.0741,0.0819,0.0835,0.092,0.0934,0.0993,0.109,0.1018,0.1078,0.0913,0.0856,0.0712,0.058,0.0609,0.0445,0.0421,0.0442,0.044,0.0323,0.0239,0.0465,0.0465,0.0466,0.0466,0,0.0651,0.0676,0.075,0.0814,0.0839,0.0899,0.1006,0.1078,0.1118,0.1244,0.1267,0.1238,0.1166,0.099,0.0837,0.0676,0.0475,0.0483,0.0513,0.0492,0.0279,0.0196,0.0086,0.0038,0.0371,0.037,0.037,0,0.0675,0.0715,0.0805,0.0861,0.0894,0.0987,0.1065,0.113,0.1228,0.1361,0.144,0.1405,0.1415,0.1162,0.0873,0.0622,0.0477,0.0455,0.0398,0.0282,0.0172,0.0119,0.0083,0.0416,0.0416,0.0416,0.0416,0,0.0727,0.0755,0.0818,0.0932,0.1018,0.1135,0.1254,0.1352,0.1471,0.16,0.1746,0.1772,0.1528,0.1286,0.0909,0.0718,0.0379,0.0443,0.0325,0.0205,0.0143,0.0082,0.0411,0.0414,0.0415,0.0415,0.0415,0.0415,0.0765,0.0819,0.0902,0.1013,0.1122,0.1275,0.1395,0.1553,0.1745,0.1961,0.1961,0.2038,0.166,0.1156,0.0878,0.0382,0.0366,0.0236,0.0148,0.0107,0.0056,0.0376,0.0347,0.0347,0.0347,0.0347,0.0346,0,0.0815,0.0879,0.0982,0.1121,0.1253,0.1303,0.152,0.167,0.1925,0.2105,0.2243,0.2094,0.165,0.1158,0.048,0.0155,0.0045,-0.0019,-0.0082,-0.0105,0.0193,0.019,0.0125,0.0125,0.0125,0.0125,0.0125,0.0125,0.0843,0.0941,0.0994,0.1203,0.1312,0.1513,0.1649,0.1883,0.2055,0.2289,0.2335,0.2322,0.1939,0.0795,0.0061,-0.0108,-0.0312,-0.0365,-0.0467,-0.0265,-0.0247,-0.023,-0.025,-0.0407,-0.0408,-0.0693,-0.0697,-0.0699]}],[{"header":{"parameterUnit":"m.s-1","parameterCategory":2,"la1":30.2991,"la2":30.254,"lo1":-89.0895,"lo2":-89.0444,"dy":0.0017,"dx":0.0017,"nx":28,"ny":28,"refTime":"2025-08-05T21:00:00:Z","depth":"2","parameterNumber":2,"parameterNumberName":"U-component_of_CURRENTS"},"data":[0,0,0,0,0,0,0,0,0,0,0,0,0,0,0,0,0,0,0,0,0,0,0,0,0,0,0,0,0,0,0,0,0,0,0,0,0,0,0,0,0,0,0,0,0,0,0,0,0,0,0,0,0,0,0,0,0,0,0.2768,0.2768,0,0.2758,0.2758,0.2758,0.274,0.274,0.274,0.274,0.2725,0.2725,0.2725,0,0,0,0,0,0,0,0,0,0,0,0,0,0.2776,0.2776,0.2768,0.2768,0.2768,0.2758,0.2758,0.2758,0.274,0.274,0.274,0.274,0.2726,0.2725,0.2725,0,0,0,0,0,0,0,0,0,0,0,0,0,0.2767,0.2775,0.2768,0.2761,0.276,0.2758,0.2758,0.2757,0.274,0.274,0.274,0.274,0.2726,0.2725,0.2725,0.2724,0,0,0.2723,0.2723,0,0,0,0,0,0,0,0,0.2768,0.2766,0.2761,0.2761,0.276,0.2753,0.2756,0.2747,0.274,0.2744,0.274,0.274,0.2736,0.2735,0.2729,0.2723,0.2722,0.2723,0.2723,0.2723,0.2723,0,0,0,0,0,0,0,0.2768,0.2767,0.2761,0.2762,0.2761,0.276,0.2758,0.2754,0.2738,0.2744,0.2743,0.2747,0.2736,0.2729,0.2729,0.2722,0.2723,0.2723,0.2723,0.2722,0.277,0.2772,0,0,0,0,0,0,0.2775,0.2767,0.2761,0.2761,0.2767,0.276,0.2758,0.2753,0.2739,0.2737,0.2747,0.2746,0.273,0.2729,0.2728,0.277,0.2723,0.2722,0.2722,0.2769,0.2771,0.2772,0,0,0,0,0,0,0.2775,0.2775,0.2762,0.2767,0.2766,0.276,0.2755,0.2753,0.2759,0.2742,0.274,0.2757,0.273,0.2729,0.2741,0.2768,0.2722,0.2722,0.2767,0.2769,0.2771,0.2826,0,0,0,0,0,0,0.2775,0.2774,0.2778,0.2767,0.2766,0.2771,0.2755,0.2753,0.2762,0.2761,0.2749,0.2747,0.273,0.2742,0.274,0.2766,0.2721,0.2765,0.2768,0.2771,0.2822,0.283,0.2836,0,0,0,0,0,0.2776,0.2777,0.2778,0.2778,0.2769,0.2772,0.2771,0.2765,0.2763,0.2769,0.2766,0.2748,0.276,0.2743,0.2741,0.2767,0.2764,0.2767,0.2771,0.2819,0.2828,0.2836,0,0,0,0,0,0,0.278,0.2776,0.2776,0.2776,0.2781,0.2771,0.2777,0.2776,0.2777,0.2779,0.2761,0.2759,0.2783,0.277,0.2751,0.2792,0.2762,0.2765,0.2799,0.2808,0.2815,0.2821,0.2721,0,0,0,0,0,0.2785,0.2786,0.2785,0.2788,0.2792,0.2789,0.2792,0.2791,0.279,0.279,0.2784,0.2785,0.2795,0.2797,0.2799,0.2815,0.283,0.2834,0.2841,0.2847,0.2853,0.2917,0.293,0.2784,0.2784,0.2784,0,0,0.2788,0.2787,0.2788,0.279,0.2791,0.2801,0.2789,0.28,0.2812,0.2789,0.2804,0.281,0.2806,0.2828,0.2838,0.282,0.2897,0.2852,0.2857,0.2859,0.2922,0.2936,0.2949,0.2786,0.2786,0.2785,0,0,0.2793,0.2795,0.2798,0.2806,0.2817,0.2819,0.2828,0.283,0.2835,0.2853,0.2847,0.2872,0.2873,0.2882,0.2886,0.2935,0.2935,0.2938,0.2974,0.3036,0.3049,0.306,0.3096,0.311,0.2938,0.2939,0.2939,0,0.28,0.2798,0.2802,0.281,0.2818,0.283,0.284,0.2851,0.2859,0.2878,0.2866,0.2908,0.2901,0.2942,0.2957,0.2952,0.298,0.2939,0.3046,0.3058,0.3068,0.3102,0.3117,0.2942,0.2941,0.2941,0.2941,0,0.2802,0.2809,0.2815,0.2828,0.2841,0.2853,0.287,0.2893,0.2907,0.2925,0.2973,0.2973,0.3002,0.3007,0.2992,0.3067,0.306,0.3051,0.3024,0.3087,0.3118,0.3132,0.2946,0.2945,0.2944,0.2943,0,0,0.2789,0.2811,0.2813,0.2821,0.285,0.2857,0.2896,0.2933,0.2971,0.2995,0.3047,0.3067,0.3087,0.3093,0.3091,0.3133,0.3225,0.3125,0.3127,0.3158,0.3356,0.3269,0.3276,0.3243,0.3246,0.3249,0.3347,0,0.2789,0.28,0.2817,0.2838,0.2843,0.2878,0.2914,0.2959,0.3,0.3059,0.3093,0.3141,0.3115,0.314,0.3183,0.3224,0.3267,0.3199,0.3292,0.3294,0.3208,0.3291,0.3,0.3057,0.3361,0.3363,0.3365,0,0.2775,0.2787,0.28,0.2838,0.2847,0.287,0.2936,0.2974,0.307,0.311,0.3179,0.3213,0.3288,0.3253,0.3359,0.3322,0.3345,0.3364,0.3369,0.3278,0.3234,0.3044,0.3071,0.3389,0.3387,0.3385,0.3383,0,0.2738,0.2771,0.2779,0.2789,0.2841,0.2865,0.2905,0.2992,0.3043,0.3157,0.3221,0.3305,0.3364,0.3418,0.3456,0.3428,0.3567,0.3533,0.3472,0.3466,0.3229,0.3197,0.3611,0.3611,0.3611,0.361,0.361,0,0.2712,0.2718,0.2763,0.2764,0.2797,0.2846,0.2906,0.2966,0.3076,0.3153,0.3248,0.3321,0.3415,0.3496,0.3509,0.3541,0.3617,0.3497,0.3497,0.3238,0.3207,0.3497,0.3483,0.3614,0.3613,0.3612,0.3612,0,0.2658,0.2685,0.2698,0.2754,0.2773,0.2798,0.2895,0.2947,0.3064,0.3172,0.3219,0.3372,0.3481,0.355,0.3648,0.3607,0.3642,0.3626,0.3304,0.3263,0.3483,0.347,0.3579,0.3577,0.3575,0.3574,0.3573,0,0.2624,0.2626,0.2677,0.269,0.2713,0.2765,0.2808,0.2923,0.2983,0.3186,0.3231,0.3394,0.3467,0.3585,0.3549,0.3567,0.3638,0.3295,0.318,0.3497,0.3486,0.3476,0.3466,0.2888,0.2882,0.2876,0.2872,0,0.2571,0.2595,0.2611,0.264,0.2673,0.2708,0.2776,0.2814,0.2962,0.3056,0.3175,0.326,0.3387,0.3275,0.3312,0.3274,0.3268,0.3184,0.3627,0.2939,0.2853,0.284,0.2851,0.2823,0.2828,0.2831,0.2834,0.2836,0.2537,0.2536,0.2565,0.2579,0.2614,0.2622,0.2612,0.2689,0.2751,0.2844,0.3007,0.3035,0.3077,0.2986,0.2891,0.2808,0.3034,0.2876,0.289,0.2911,0.2811,0.2727,0.2653,0.2657,0.266,0.2663,0.2666,0,0.2485,0.249,0.2502,0.2499,0.2482,0.2541,0.2566,0.2521,0.252,0.2643,0.2711,0.2518,0.2458,0.2503,0.2295,0.2283,0.223,0.2187,0.2087,0.2139,0.2184,0.2043,0.1684,0.1681,0.1678,0.1675,0,0,0.2462,0.2438,0.2431,0.2362,0.236,0.2293,0.2274,0.2222,0.2246,0.2212,0.2204,0.2402,0.2461,0.2063,0.1993,0.1804,0.1959,0.1729,0.2522,0.246,0.2501,0.2593,0.2437,0,0,0,0,0]},{"header":{"parameterUnit":"m.s-1","parameterCategory":2,"la1":30.2991,"la2":30.254,"lo1":-89.0895,"lo2":-89.0444,"dy":0.0017,"dx":0.0017,"nx":28,"ny":28,"refTime":"2025-08-05T21:00:00:Z","depth":"2","parameterNumber":3,"parameterNumberName":"V-component_of_CURRENTS"},"data":[0,0,0,0,0,0,0,0,0,0,0,0,0,0,0,0,0,0,0,0,0,0,0,0,0,0,0,0,0,0,0,0,0,0,0,0,0,0,0,0,0,0,0,0,0,0,0,0,0,0,0,0,0,0,0,0,0,0,0.0248,0.0248,0,0.0212,0.0211,0.0211,0.0189,0.0189,0.0189,0.0189,0.0142,0.0141,0.014,0,0,0,0,0,0,0,0,0,0,0,0,0,0.0246,0.0246,0.0248,0.0248,0.0247,0.0212,0.0211,0.0211,0.0189,0.0189,0.0189,0.0189,0.0143,0.0141,0.014,0,0,0,0,0,0,0,0,0,0,0,0,0,0.0231,0.0246,0.0248,0.0233,0.0231,0.0212,0.0211,0.0211,0.0189,0.0189,0.0189,0.0188,0.0143,0.0142,0.014,0.013,0,0,0.0134,0.0134,0,0,0,0,0,0,0,0,0.0232,0.0231,0.0235,0.0234,0.0232,0.0206,0.0194,0.0183,0.0189,0.0204,0.0189,0.0188,0.0163,0.016,0.0152,0.0128,0.0126,0.0134,0.0133,0.0132,0.0132,0,0,0,0,0,0,0,0.0233,0.0232,0.0233,0.0235,0.0233,0.021,0.0208,0.0191,0.0183,0.0202,0.0201,0.0198,0.0162,0.0154,0.0151,0.0125,0.0134,0.0133,0.0132,0.0131,0.0101,0.0102,0,0,0,0,0,0,0.0243,0.0234,0.0234,0.0232,0.0233,0.021,0.0208,0.0213,0.0184,0.0179,0.0198,0.0198,0.0157,0.0153,0.0149,0.0157,0.0132,0.0131,0.013,0.0101,0.0101,0.0102,0,0,0,0,0,0,0.0243,0.0243,0.0235,0.0232,0.023,0.0211,0.0216,0.0213,0.0208,0.0181,0.0176,0.0199,0.0157,0.0152,0.0143,0.0154,0.013,0.0128,0.0101,0.0101,0.0102,0.0159,0,0,0,0,0,0,0.0243,0.0244,0.025,0.0233,0.023,0.0233,0.0216,0.0212,0.0207,0.0205,0.018,0.0175,0.0156,0.0145,0.0141,0.0151,0.0127,0.01,0.0101,0.0101,0.0156,0.0161,0.0165,0,0,0,0,0,0.0243,0.0255,0.025,0.025,0.024,0.0234,0.0231,0.0215,0.0207,0.021,0.0193,0.0176,0.0145,0.0144,0.0139,0.0149,0.01,0.0101,0.0101,0.0154,0.016,0.0165,0,0,0,0,0,0,0.0253,0.0254,0.0248,0.0258,0.025,0.0231,0.0231,0.022,0.0208,0.0206,0.018,0.0175,0.0169,0.015,0.015,0.0141,0.012,0.0119,0.0162,0.0167,0.0171,0.0189,0.0125,0,0,0,0,0,0.0259,0.0271,0.0262,0.0269,0.0268,0.0249,0.0245,0.0236,0.0223,0.0217,0.0199,0.018,0.0166,0.0161,0.0142,0.014,0.0121,0.0142,0.0146,0.015,0.0161,0.0143,0.0147,0.0104,0.0104,0.0104,0,0,0.0263,0.0266,0.0271,0.0272,0.0263,0.0272,0.0247,0.0245,0.0253,0.0214,0.0218,0.0193,0.0167,0.0164,0.016,0.0152,0.0151,0.0151,0.0155,0.0163,0.0145,0.0149,0.0153,0.0104,0.0104,0.0104,0,0,0.0282,0.0281,0.0299,0.0299,0.0295,0.0287,0.0291,0.0277,0.0271,0.0268,0.0243,0.0229,0.0206,0.0194,0.0184,0.02,0.0171,0.0192,0.0233,0.0216,0.022,0.0223,0.02,0.0201,0.0198,0.0198,0.0198,0,0.0287,0.0311,0.03,0.0318,0.0326,0.03,0.0321,0.0311,0.0296,0.0299,0.0277,0.025,0.0222,0.0227,0.023,0.0211,0.0195,0.0218,0.0223,0.0226,0.0228,0.0204,0.0204,0.0201,0.0201,0.02,0.02,0,0.0322,0.034,0.0349,0.037,0.0374,0.0386,0.0378,0.0377,0.0363,0.0356,0.0351,0.0311,0.0298,0.0283,0.026,0.0266,0.0247,0.0228,0.0214,0.0236,0.0209,0.0208,0.0205,0.0204,0.0203,0.0202,0,0,0.0339,0.037,0.0374,0.0398,0.0406,0.0417,0.0429,0.044,0.0461,0.0428,0.0451,0.0408,0.0384,0.0371,0.0337,0.0321,0.0311,0.0287,0.0284,0.0271,0.0272,0.0245,0.024,0.0295,0.0296,0.0296,0.0246,0,0.0372,0.0423,0.0427,0.0475,0.0502,0.0491,0.0514,0.0518,0.051,0.0523,0.0479,0.0484,0.0419,0.0419,0.0388,0.0337,0.0312,0.0326,0.0247,0.0245,0.0223,0.024,0.0249,0.0204,0.0245,0.0244,0.0244,0,0.0408,0.0442,0.0496,0.0545,0.0557,0.0579,0.0616,0.0635,0.0639,0.0635,0.0619,0.0585,0.0556,0.0498,0.0413,0.0426,0.0354,0.0305,0.0301,0.0258,0.0216,0.0188,0.0201,0.0242,0.0242,0.0242,0.0242,0,0.044,0.0492,0.0541,0.0557,0.0604,0.0626,0.0652,0.067,0.071,0.0713,0.0741,0.0681,0.0673,0.0574,0.0453,0.0438,0.0359,0.0324,0.0227,0.0224,0.0208,0.0203,0.0262,0.0262,0.0262,0.0262,0.0262,0,0.048,0.052,0.0562,0.0592,0.0662,0.0676,0.0752,0.0762,0.0806,0.0879,0.0808,0.0842,0.0694,0.0625,0.0493,0.036,0.0383,0.0241,0.0214,0.0226,0.0224,0.0237,0.0235,0.026,0.0261,0.0261,0.0261,0,0.051,0.0533,0.0599,0.0657,0.068,0.0735,0.0829,0.0892,0.0916,0.1007,0.1018,0.0972,0.0884,0.0722,0.0569,0.043,0.0296,0.0239,0.0259,0.0235,0.016,0.0161,0.0131,0.0129,0.0128,0.0127,0.0127,0,0.0532,0.0567,0.065,0.0701,0.0731,0.0817,0.0888,0.0941,0.1021,0.1096,0.1152,0.1091,0.1067,0.0816,0.0568,0.0335,0.03,0.0177,0.0144,0.0172,0.0148,0.0151,0.0154,0.014,0.0139,0.0139,0.0138,0,0.0578,0.0603,0.0661,0.0766,0.0846,0.0952,0.1056,0.1134,0.122,0.1295,0.1372,0.1356,0.1124,0.0887,0.0554,0.0386,0.0211,0.0159,0.0195,0.0172,0.0176,0.0155,0.0158,0.0134,0.0135,0.0135,0.0135,0.0135,0.0613,0.0662,0.0738,0.084,0.094,0.1074,0.1174,0.1292,0.1428,0.1547,0.1525,0.1503,0.1226,0.0803,0.051,0.0189,0.0206,0.0079,0.0083,0.0086,0.0097,0.0099,0.0044,0.0044,0.0044,0.0043,0.0043,0,0.066,0.0717,0.081,0.0934,0.1053,0.1102,0.1281,0.1385,0.1549,0.1641,0.1698,0.1433,0.1166,0.0841,0.0372,0.0097,0.0074,-0.0004,0.0031,0.0037,0.0042,0.0051,-0.0015,-0.0016,-0.0016,-0.0017,0,0,0.0686,0.0774,0.082,0.1003,0.11,0.1268,0.1378,0.1521,0.1622,0.1713,0.1702,0.1658,0.1264,0.0917,0.0537,0.0264,0.0213,0.0201,0.0276,0.0368,0.0376,0.0114,0.0137,0,0,0,0,0]}],[{"header":{"parameterUnit":"m.s-1","parameterCategory":2,"la1":30.2991,"la2":30.254,"lo1":-89.0895,"lo2":-89.0444,"dy":0.0017,"dx":0.0017,"nx":28,"ny":28,"refTime":"2025-08-05T21:00:00:Z","depth":"4","parameterNumber":2,"parameterNumberName":"U-component_of_CURRENTS"},"data":[0,0,0,0,0,0,0,0,0,0,0,0,0,0,0,0,0,0,0,0,0,0,0,0,0,0,0,0,0,0,0,0,0,0,0,0,0,0,0,0,0,0,0,0,0,0,0,0,0,0,0,0,0,0,0,0,0,0,0.1795,0.1796,0,0.1841,0.1841,0.1842,0.1888,0.1889,0.1889,0.189,0.1947,0.1948,0.1948,0,0,0,0,0,0,0,0,0,0,0,0,0,0.174,0.1741,0.1795,0.1796,0.1797,0.1841,0.1841,0.1842,0.1887,0.1889,0.189,0.1891,0.1947,0.1948,0.1949,0,0,0,0,0,0,0,0,0,0,0,0,0,0.177,0.1741,0.1795,0.1827,0.1831,0.1841,0.1841,0.1842,0.1887,0.1889,0.189,0.1891,0.1947,0.1948,0.1949,0.193,0,0,0.1952,0.1952,0,0,0,0,0,0,0,0,0.1769,0.1772,0.1822,0.1825,0.1829,0.1862,0.1843,0.1873,0.1887,0.1863,0.189,0.1892,0.192,0.1924,0.1926,0.1932,0.1935,0.1952,0.1953,0.1953,0.1953,0,0,0,0,0,0,0,0.1767,0.177,0.1811,0.1822,0.1827,0.1837,0.1842,0.1848,0.1882,0.1865,0.1869,0.1878,0.1922,0.1924,0.1927,0.1936,0.1952,0.1953,0.1954,0.1954,0.2046,0.2048,0,0,0,0,0,0,0.1765,0.1768,0.1809,0.1812,0.1804,0.1837,0.1843,0.1848,0.1882,0.1889,0.1877,0.188,0.1922,0.1926,0.193,0.2013,0.1953,0.1954,0.1955,0.2044,0.2046,0.2048,0,0,0,0,0,0,0.1764,0.1768,0.1808,0.1794,0.18,0.1837,0.1842,0.1848,0.1891,0.1891,0.1898,0.1918,0.1923,0.1928,0.1974,0.2011,0.1955,0.1956,0.2042,0.2045,0.2047,0.2112,0,0,0,0,0,0,0.1762,0.1767,0.179,0.1793,0.1801,0.1839,0.1841,0.1848,0.1893,0.1899,0.1928,0.1932,0.1925,0.1972,0.1975,0.2012,0.1956,0.204,0.2043,0.2046,0.2108,0.2117,0.2124,0,0,0,0,0,0.1759,0.1776,0.179,0.1797,0.1824,0.184,0.1845,0.1873,0.1894,0.1916,0.1943,0.1934,0.1995,0.1974,0.1977,0.2015,0.2038,0.2042,0.2046,0.2104,0.2115,0.2124,0,0,0,0,0,0,0.1765,0.1783,0.1798,0.1822,0.1844,0.185,0.1879,0.1896,0.1932,0.1952,0.1952,0.1958,0.2013,0.2006,0.1983,0.2053,0.2017,0.2022,0.206,0.207,0.2078,0.2079,0.1957,0,0,0,0,0,0.1776,0.1798,0.1812,0.1838,0.1852,0.1874,0.1893,0.1912,0.1936,0.1955,0.1976,0.2001,0.2023,0.2042,0.2057,0.2092,0.2096,0.2121,0.2129,0.2136,0.2139,0.2187,0.22,0.2061,0.2061,0.2061,0,0,0.1787,0.1801,0.1816,0.1843,0.1864,0.1886,0.189,0.1929,0.1957,0.1954,0.2014,0.2033,0.204,0.2083,0.2107,0.2087,0.2179,0.2141,0.2147,0.2146,0.2192,0.2206,0.2218,0.2064,0.2064,0.2063,0,0,0.1804,0.1834,0.1854,0.1874,0.1913,0.1924,0.1945,0.1975,0.2005,0.2053,0.2063,0.2109,0.2141,0.2154,0.2162,0.2225,0.2222,0.2238,0.2281,0.2328,0.2339,0.235,0.2375,0.2387,0.2242,0.2242,0.2242,0,0.1822,0.1842,0.1864,0.1886,0.191,0.1946,0.197,0.2,0.2046,0.2078,0.2087,0.2162,0.2171,0.2219,0.2244,0.2244,0.2266,0.224,0.2339,0.2349,0.2358,0.2381,0.2394,0.2246,0.2245,0.2245,0.2245,0,0.1836,0.1871,0.1887,0.1925,0.1953,0.1985,0.202,0.2068,0.2113,0.2143,0.222,0.2238,0.2284,0.2297,0.229,0.2364,0.2357,0.2344,0.2311,0.2376,0.2396,0.2408,0.2251,0.225,0.2249,0.2248,0,0,0.1825,0.1885,0.1896,0.1921,0.1979,0.1997,0.2059,0.2115,0.2167,0.2227,0.229,0.2339,0.2371,0.2382,0.2389,0.2427,0.2511,0.2422,0.2423,0.2443,0.2614,0.2433,0.2428,0.2526,0.2528,0.253,0.2602,0,0.1833,0.1875,0.1907,0.196,0.1982,0.2039,0.2089,0.2153,0.2214,0.2287,0.2335,0.2399,0.2396,0.2432,0.2475,0.2506,0.2546,0.2492,0.2551,0.2552,0.2381,0.2437,0.2538,0.261,0.2613,0.2615,0.2616,0,0.1825,0.1857,0.1906,0.1976,0.1994,0.2039,0.2131,0.2182,0.2288,0.2343,0.2424,0.2464,0.2543,0.2523,0.262,0.2594,0.2615,0.2627,0.263,0.2444,0.2392,0.2532,0.2637,0.2635,0.2634,0.2632,0.2631,0,0.1779,0.1852,0.1893,0.1917,0.2003,0.2052,0.211,0.2211,0.2266,0.239,0.2448,0.2543,0.2605,0.2655,0.2694,0.2676,0.2782,0.2756,0.2609,0.2597,0.271,0.2698,0.282,0.282,0.282,0.282,0.282,0,0.1746,0.1785,0.1885,0.1905,0.197,0.2041,0.2126,0.22,0.2311,0.2375,0.2482,0.2535,0.2647,0.2712,0.273,0.2702,0.2819,0.2621,0.2605,0.2735,0.2725,0.2718,0.2705,0.2822,0.2822,0.2821,0.2821,0,0.1679,0.1745,0.18,0.1908,0.1948,0.1998,0.2125,0.2175,0.2301,0.2386,0.2431,0.2569,0.2649,0.2723,0.2807,0.273,0.2729,0.269,0.2829,0.2819,0.2504,0.2494,0.2525,0.2519,0.2514,0.251,0.2507,0,0.1641,0.1666,0.1791,0.1828,0.1883,0.1974,0.2027,0.2159,0.2205,0.2377,0.2396,0.2532,0.2602,0.2577,0.2673,0.2686,0.2654,0.2627,0.2551,0.2492,0.2476,0.2473,0.247,0.2499,0.2498,0.2496,0.2495,0,0.1572,0.1639,0.1687,0.1764,0.1829,0.1881,0.1967,0.1985,0.2125,0.2266,0.2299,0.2333,0.2417,0.2468,0.2498,0.2503,0.2626,0.2576,0.2585,0.2513,0.2462,0.2449,0.2451,0.2478,0.2481,0.2482,0.2483,0,0.1533,0.155,0.1627,0.1676,0.1751,0.1752,0.1813,0.1855,0.1916,0.2093,0.2108,0.225,0.2393,0.2375,0.2406,0.2393,0.2349,0.2252,0.2277,0.2297,0.2187,0.2086,0.1977,0,0,0,0,0,0.1482,0.1485,0.1526,0.1558,0.1621,0.1659,0.1751,0.1811,0.1949,0.1913,0.1998,0.2059,0.2098,0.2181,0.2122,0.2308,0.2362,0.2227,0.2265,0.2385,0.2404,0.2294,0,0,0,0,0,0,0.1446,0.1488,0.1488,0.1448,0.1444,0.1486,0.1536,0.1626,0.161,0.1768,0.1807,0.1926,0.2008,0.2116,0.2084,0.2106,0.2081,0.2323,0.2316,0.2374,0.2391,0.2407,0.23,0,0,0,0,0]},{"header":{"parameterUnit":"m.s-1","parameterCategory":2,"la1":30.2991,"la2":30.254,"lo1":-89.0895,"lo2":-89.0444,"dy":0.0017,"dx":0.0017,"nx":28,"ny":28,"refTime":"2025-08-05T21:00:00:Z","depth":"4","parameterNumber":3,"parameterNumberName":"V-component_of_CURRENTS"},"data":[0,0,0,0,0,0,0,0,0,0,0,0,0,0,0,0,0,0,0,0,0,0,0,0,0,0,0,0,0,0,0,0,0,0,0,0,0,0,0,0,0,0,0,0,0,0,0,0,0,0,0,0,0,0,0,0,0,0,0.017,0.017,0,0.0146,0.0146,0.0146,0.0134,0.0134,0.0134,0.0134,0.0103,0.0102,0.0101,0,0,0,0,0,0,0,0,0,0,0,0,0,0.0168,0.0169,0.017,0.017,0.017,0.0146,0.0146,0.0145,0.0134,0.0134,0.0134,0.0134,0.0103,0.0102,0.0101,0,0,0,0,0,0,0,0,0,0,0,0,0,0.0159,0.0169,0.017,0.0161,0.016,0.0146,0.0146,0.0145,0.0134,0.0134,0.0134,0.0134,0.0103,0.0102,0.0101,0.0091,0,0,0.0097,0.0096,0,0,0,0,0,0,0,0,0.0159,0.0159,0.0163,0.0162,0.0161,0.0143,0.0134,0.0127,0.0134,0.0143,0.0134,0.0134,0.0116,0.0114,0.0108,0.009,0.0089,0.0097,0.0096,0.0095,0.0095,0,0,0,0,0,0,0,0.016,0.016,0.016,0.0162,0.0161,0.0146,0.0145,0.0132,0.0129,0.0142,0.0142,0.014,0.0115,0.011,0.0107,0.0088,0.0097,0.0096,0.0095,0.0094,0.0074,0.0074,0,0,0,0,0,0,0.0166,0.016,0.0161,0.0159,0.0161,0.0146,0.0145,0.0148,0.0129,0.0127,0.014,0.0139,0.0112,0.0109,0.0106,0.0115,0.0095,0.0094,0.0093,0.0074,0.0074,0.0074,0,0,0,0,0,0,0.0166,0.0167,0.0162,0.0159,0.0158,0.0146,0.015,0.0148,0.0147,0.0127,0.0124,0.0142,0.0112,0.0108,0.0103,0.0113,0.0093,0.0092,0.0073,0.0074,0.0074,0.012,0,0,0,0,0,0,0.0166,0.0167,0.0173,0.016,0.0158,0.0161,0.015,0.0147,0.0146,0.0146,0.0128,0.0125,0.0111,0.0106,0.0102,0.0111,0.0091,0.0073,0.0073,0.0074,0.0118,0.0122,0.0125,0,0,0,0,0,0.0166,0.0176,0.0173,0.0173,0.0166,0.0162,0.016,0.015,0.0146,0.015,0.0139,0.0126,0.0106,0.0105,0.0101,0.011,0.0073,0.0073,0.0074,0.0117,0.0121,0.0125,0,0,0,0,0,0,0.0174,0.0175,0.0172,0.018,0.0175,0.016,0.0162,0.0155,0.0148,0.0149,0.013,0.0126,0.0124,0.011,0.0109,0.0104,0.0087,0.0087,0.0121,0.0125,0.0128,0.0142,0.009,0,0,0,0,0,0.018,0.0189,0.0182,0.0188,0.0188,0.0175,0.0173,0.0167,0.0159,0.0156,0.0144,0.0131,0.0121,0.0119,0.0105,0.0104,0.0085,0.0106,0.011,0.0113,0.0121,0.0101,0.0103,0.0076,0.0076,0.0076,0,0,0.0184,0.0185,0.019,0.0191,0.0185,0.0193,0.0174,0.0174,0.0182,0.0153,0.016,0.0142,0.0123,0.0122,0.012,0.0114,0.0109,0.0114,0.0117,0.0123,0.0101,0.0104,0.0107,0.0076,0.0076,0.0076,0,0,0.0198,0.0199,0.0212,0.0213,0.0211,0.0206,0.0209,0.02,0.0198,0.0198,0.018,0.0171,0.0156,0.0146,0.0139,0.0152,0.0126,0.0147,0.0179,0.016,0.0162,0.0164,0.0138,0.0137,0.0152,0.0152,0.0152,0,0.0203,0.0221,0.0214,0.0227,0.0234,0.0217,0.0233,0.0228,0.0218,0.0222,0.0207,0.0188,0.0168,0.0172,0.0175,0.0161,0.0144,0.0167,0.0165,0.0166,0.0167,0.014,0.0139,0.0154,0.0154,0.0154,0.0153,0,0.0228,0.0244,0.0251,0.0268,0.0272,0.0283,0.0278,0.028,0.0272,0.0267,0.0265,0.0236,0.0228,0.0216,0.02,0.0202,0.0184,0.017,0.0157,0.0173,0.0143,0.0141,0.0157,0.0157,0.0156,0.0155,0,0,0.024,0.0265,0.0269,0.0289,0.0298,0.0307,0.0319,0.0329,0.0347,0.0324,0.0341,0.0312,0.0295,0.0286,0.026,0.0242,0.0226,0.0214,0.0212,0.0193,0.0179,0.0155,0.0149,0.0213,0.0213,0.0213,0.0154,0,0.0263,0.0303,0.0308,0.0348,0.0369,0.0365,0.0385,0.039,0.0386,0.0397,0.0363,0.0366,0.0323,0.0322,0.0296,0.0248,0.0223,0.0243,0.0162,0.016,0.0141,0.0147,0.0213,0.0152,0.0151,0.015,0.015,0,0.0288,0.0315,0.0359,0.0402,0.0411,0.0433,0.0466,0.0483,0.0487,0.0485,0.0473,0.0444,0.0418,0.0376,0.0299,0.0315,0.0253,0.0207,0.0203,0.0165,0.0132,0.0132,0.0145,0.0146,0.0146,0.0146,0.0147,0,0.0307,0.0352,0.0393,0.0406,0.0447,0.047,0.0495,0.0513,0.0545,0.0545,0.0561,0.0514,0.0503,0.0419,0.0315,0.031,0.0223,0.0202,0.0119,0.0116,0.0135,0.0134,0.0144,0.0144,0.0144,0.0144,0.0145,0,0.0333,0.0367,0.0409,0.0433,0.0494,0.051,0.0575,0.0586,0.0622,0.0671,0.0615,0.0628,0.0515,0.0447,0.034,0.0223,0.0238,0.0127,0.0102,0.0154,0.0156,0.0133,0.0132,0.0142,0.0143,0.0143,0.0143,0,0.0348,0.0372,0.0427,0.0482,0.0505,0.0553,0.0638,0.0688,0.0707,0.0766,0.077,0.0721,0.0632,0.0501,0.0367,0.0266,0.0147,0.0098,0.0164,0.0143,0.0045,0.0048,0.0005,0.0003,0.0002,0.0001,0.0001,0,0.0359,0.0387,0.0465,0.0511,0.0541,0.0618,0.0679,0.0728,0.0784,0.0822,0.0851,0.0784,0.0729,0.0524,0.0375,0.0166,0.0129,0.0058,0.0048,0.0052,0.0032,0.0037,0.004,-0.0001,-0.0001,-0.0002,-0.0002,0,0.0383,0.0411,0.0459,0.0552,0.0624,0.0713,0.0798,0.0843,0.0906,0.0921,0.0919,0.081,0.0708,0.0532,0.0367,0.0215,0.0099,0.0046,0.0047,0.0037,0.0045,0.0027,0.0032,-0.0006,-0.0005,-0.0005,-0.0004,0,0.0403,0.0441,0.0507,0.0592,0.0686,0.078,0.0825,0.0891,0.0944,0.0974,0.0972,0.0854,0.0791,0.0558,0.0408,0.0252,0.0207,0.0141,0.0136,0.0138,0.0186,0.0215,0.0201,0,0,0,0,0,0.0423,0.0467,0.0544,0.0637,0.0734,0.0791,0.0895,0.0935,0.0987,0.0993,0.0986,0.0886,0.0669,0.0577,0.0419,0.0372,0.0169,0.0177,0.0089,-0.0026,-0.0022,0.0007,0,0,0,0,0,0,0.0435,0.0504,0.0541,0.0662,0.0732,0.0844,0.0913,0.0951,0.0954,0.0976,0.0867,0.0823,0.0615,0.0758,0.0408,0.0363,0.0278,0.0082,0.0078,-0.0029,-0.0025,-0.0021,0.001,0,0,0,0,0]}]]